This demonstration page uses our WeatherBlox Daily Observations layout. Learn more.

Left ArrowRight Arrow

39.08367, -84.50855

Hourly Observations for June 4, 2015

Temp ( °F °C ) Dew Point ( °F °C ) Humidity (%) Winds ( mph kmh ) Pressure ( in mb ) Visibility ( mi km ) Precip ( " mm )
12:11 am 00:11 Clear with Mist and Fog 56 13.3 56 13.3 100 100 N N/A 30.03 1017 3 4 N/A
12:19 am 00:19 Clear with Mist and Fog 57 13.9 57 13.9 100 100 N N/A 30.03 1017 4 6 N/A
12:53 am 00:53 Clear with Mist and Fog 56 13.3 56 13.3 100 100 N N/A 30.03 1017 4 6 N/A
1:20 am 01:20 Clear with Mist and Fog 55 13 55 13 100 100 N N/A 30.03 1017 1 2 N/A
1:28 am 01:28 Clear with Mist and Fog 55 13 55 13 100 100 N N/A 30.03 1017 1 1 N/A
1:32 am 01:32 Clear with Mist and Fog 55 13 55 13 100 100 N N/A 30.03 1017 2 3 N/A
1:40 am 01:40 Clear with Mist and Fog 55 13 55 13 100 100 N N/A 30.03 1017 3 5 N/A
1:53 am 01:53 Clear with Mist and Fog 57 13.9 57 13.9 100 100 N N/A 30.02 1017 4 6 N/A
2:09 am 02:09 Clear with Mist and Fog 55 12.8 55 12.8 100 100 N N/A 30.03 1017 2 2 N/A
2:18 am 02:18 Partly Cloudy with Mist and Fog 55 13 55 13 100 100 N N/A 30.03 1017 1 2 N/A
2:22 am 02:22 Partly Cloudy with Mist and Fog 55 13 55 13 100 100 N N/A 30.03 1017 3 5 N/A
2:35 am 02:35 Mostly Cloudy with Mist and Fog 57 13.9 57 13.9 100 100 N N/A 30.03 1017 5 8 N/A
2:53 am 02:53 Cloudy with Mist and Fog 57 13.9 57 13.9 100 100 N N/A 30.03 1017 5 8 N/A
3:01 am 03:01 Cloudy with Mist and Fog 56 13.3 56 13.3 100 100 N N/A 30.03 1017 4 6 N/A
3:41 am 03:41 Cloudy with Mist and Fog 59 15 58 14.4 96 96 NNE 3 6 30.00 1016 5 8 N/A
3:53 am 03:53 Mostly Cloudy with Mist and Fog 59 15 58 14.4 96 96 N N/A 30.02 1017 5 8 N/A
4:53 am 04:53 Mostly Clear with Mist and Fog 58 14.4 57 13.9 97 97 N N/A 30.02 1017 3 4 N/A
5:01 am 05:01 Mostly Clear with Mist and Fog 58 14.4 57 13.9 97 97 N N/A 30.03 1017 4 6 N/A
5:05 am 05:05 Mostly Clear with Mist and Fog 57 13.9 57 13.9 100 100 N N/A 30.03 1017 2 2 N/A
5:08 am 05:08 Mostly Cloudy with Fog 55 13 55 13 100 100 NE 3 6 30.03 1017 1 1 N/A
5:29 am 05:29 Mostly Clear with Mist and Fog 57 13.9 57 13.9 100 100 NE 3 6 30.03 1017 1 2 N/A
5:35 am 05:35 Mostly Cloudy with Mist and Fog 56 13.3 56 13.3 100 100 ENE 3 6 30.03 1017 1 1 N/A
5:42 am 05:42 Clear with Fog 55 13 55 13 100 100 N N/A 30.03 1017 1 1 N/A
5:53 am 05:53 Clear with Mist and Fog 56 13.3 56 13.3 100 100 NE 3 6 30.04 1017 1 2 N/A
6:00 am 06:00 Clear with Fog 55 13 55 13 100 100 E 3 6 30.06 1018 1 1 N/A
6:10 am 06:10 Clear with Mist and Fog 55 13 55 13 100 100 N N/A 30.06 1018 2 3 N/A
6:17 am 06:17 Sunny with Mist and Fog 55 12.8 55 12.8 100 100 N N/A 30.06 1018 1 1 N/A
6:28 am 06:28 Partly Cloudy with Mist and Fog 54 12 54 12 100 100 N N/A 30.06 1018 3 4 N/A
6:42 am 06:42 Mostly Cloudy with Mist and Fog 55 13 55 13 100 100 N N/A 30.06 1018 1 2 N/A
6:53 am 06:53 Mostly Cloudy with Mist and Fog 57 13.9 57 13.9 100 100 N N/A 30.06 1018 4 6 N/A
7:53 am 07:53 Partly Cloudy with Mist and Fog 62 16.7 60 15.6 93 93 N N/A 30.07 1018 4 6 N/A
8:53 am 08:53 Mostly Cloudy with Mist and Fog 65 18.3 62 16.7 90 90 N N/A 30.09 1019 5 8 N/A
9:53 am 09:53 Mostly Sunny 69 20.6 62 16.7 78 78 N N/A 30.07 1018 8 13 N/A
10:53 am 10:53 Partly Cloudy 73 22.8 63 17.2 71 71 VRB 3 6 30.05 1018 9 14 N/A
11:53 am 11:53 Partly Cloudy 75 23.9 63 17.2 66 66 WSW 8 13 30.05 1018 10 16 N/A
12:53 pm 12:53 Partly Cloudy 78 25.6 63 17.2 60 60 SW 7 11 30.04 1017 10 16 N/A
1:53 pm 13:53 Mostly Sunny 79 26.1 62 16.7 56 56 S 12 19 30.03 1017 10 16 N/A
2:53 pm 14:53 Partly Cloudy 79 26.1 60 15.6 52 52 SSE 3 6 30.03 1017 10 16 N/A
3:53 pm 15:53 Partly Cloudy 81 27.2 61 16.1 51 51 S 6 9 30.01 1016 10 16 N/A
4:53 pm 16:53 Partly Cloudy 81 27.2 61 16.1 51 51 SW 9 15 30.01 1016 10 16 N/A
5:53 pm 17:53 Mostly Cloudy 82 27.8 60 15.6 47 47 W 10 17 30.01 1016 10 16 N/A
6:53 pm 18:53 Sunny 81 27.2 58 14.4 45 45 WSW 5 7 30.00 1016 10 16 N/A
7:53 pm 19:53 Sunny 78 25.6 59 15 52 52 W 8 13 30.00 1016 10 16 N/A
8:53 pm 20:53 Sunny 74 23.3 56 13.3 54 54 WSW 7 11 30.00 1016 10 16 N/A
9:53 pm 21:53 Clear 68 20 60 15.6 76 76 N N/A 30.00 1016 10 16 N/A
10:53 pm 22:53 Clear 64 17.8 60 15.6 87 87 N N/A 30.02 1017 10 16 N/A
11:53 pm 23:53 Clear 62 16.7 59 15 90 90 N N/A 30.03 1017 10 16 N/A

Powered by AerisWeather